RH
14 13 13 13 16 21 27 31 31 29 26 24 24 24 24 23 23 24 28 25 20 19 17 15 15 16 17 19 19 22 30 35 46 65 70 33 1 18 26 17 20 23 29 30 28 33 37 37 34 35 37 37 44 53 56 57 64 78 89 95 97 94 88 76 69 70 74 88 93 87 84 86 89 89 88 87 87 87 84 80 74 69 56 49 54 53 54 55
13 14 15 13 15 17 20 26 30 29 27 25 24 24 24 23 24 26 28 23 20 20 16 15 13 13 16 18 20 24 34 44 65 78 52 15 4 17 27 26 22 22 28 26 25 32 32 29 32 33 36 39 40 45 49 51 61 77 88 94 92 84 75 69 70 69 70 87 93 87 85 85 87 88 88 89 89 88 86 84 81 73 57 49 52 51 53 53
12 13 16 17 16 17 17 20 25 28 27 26 25 24 24 24 24 26 27 21 20 21 18 15 12 15 17 18 25 30 47 64 73 68 32 6 8 13 24 30 24 22 23 21 20 25 25 24 30 33 37 42 41 42 46 52 63 69 76 88 84 69 66 68 73 76 75 83 90 90 88 86 86 87 89 89 89 89 88 87 79 66 58 54 51 50 51 52
11 17 20 24 21 19 19 17 19 24 25 25 24 24 24 24 25 26 27 22 22 26 24 21 18 19 19 22 30 39 62 72 56 42 25 9 6 9 20 26 26 25 19 17 18 21 23 23 29 33 38 43 40 41 44 51 60 64 68 73 70 62 63 67 72 76 75 79 87 89 88 88 87 86 88 88 91 94 90 83 74 63 56 53 51 49 49 51
14 22 26 30 28 24 24 20 17 19 22 23 22 22 22 23 25 26 27 22 24 34 33 29 27 22 24 27 35 52 66 55 37 32 26 16 10 10 19 25 27 25 21 21 19 18 21 20 26 33 40 44 43 43 45 46 51 59 62 57 57 60 62 64 67 70 72 78 87 89 89 89 88 88 86 84 88 93 89 82 77 64 51 50 50 47 48 50
27 28 33 35 34 31 28 24 21 18 19 20 20 20 20 22 23 26 28 24 27 38 37 34 33 28 29 33 41 60 58 34 26 30 22 18 19 17 21 27 26 23 22 22 19 18 19 20 25 33 41 44 44 46 44 39 42 52 53 48 49 53 59 64 66 70 72 81 90 89 88 87 87 90 86 83 85 86 85 83 79 66 49 46 47 46 48 49
40 36 40 38 37 34 31 29 26 22 19 18 19 19 18 20 22 25 29 26 29 37 37 33 34 33 33 43 57 66 63 42 25 24 20 16 19 21 24 27 26 24 21 20 20 18 18 21 26 30 38 46 45 44 40 33 35 41 40 40 42 47 57 63 66 70 70 78 86 84 84 86 87 89 84 85 87 83 85 82 75 72 59 46 45 46 46 48
45 41 43 40 38 34 33 31 29 26 22 18 18 18 17 18 21 24 28 28 29 35 38 34 34 37 33 44 60 61 62 46 23 20 20 17 18 21 26 30 30 26 23 21 18 18 19 21 25 28 35 43 42 38 36 32 32 34 34 32 33 44 54 59 66 67 67 75 80 81 85 85 85 87 83 85 88 79 83 81 71 79 73 50 44 46 46 48
47 42 43 41 38 34 32 30 29 27 24 20 17 18 16 16 19 22 26 28 28 31 36 36 37 38 32 42 54 48 40 27 17 19 21 22 21 20 26 31 31 29 27 23 18 17 19 21 24 27 33 37 37 35 33 34 34 29 28 27 27 42 49 55 67 67 69 75 76 81 86 87 83 82 83 85 84 75 78 79 70 78 74 51 44 46 46 48
48 43 43 40 38 34 31 28 28 26 23 20 15 17 17 15 18 21 24 26 28 29 32 40 42 37 35 45 53 41 24 17 20 21 23 27 22 21 27 28 28 29 28 26 22 18 17 21 23 24 29 32 32 33 30 32 30 20 20 18 20 39 47 56 71 69 72 75 72 78 87 89 82 81 87 83 76 72 76 76 67 70 64 47 45 47 46 46
49 43 44 40 37 33 30 28 27 25 22 18 14 15 16 16 17 20 22 24 27 27 32 43 41 36 41 52 54 38 19 16 22 23 27 31 28 26 26 23 25 26 27 27 24 20 16 18 21 24 29 30 29 30 28 25 21 16 16 13 16 36 51 62 73 70 72 74 68 74 87 89 85 88 88 77 70 70 75 72 63 61 55 46 46 49 48 45
53 44 44 41 38 33 31 29 26 25 21 16 13 13 15 17 17 20 21 22 26 25 32 45 42 40 51 59 54 33 16 15 17 23 30 29 27 27 25 23 24 23 23 24 24 21 18 16 19 26 29 28 29 29 25 19 17 16 15 13 17 36 57 65 68 68 68 71 67 68 85 93 90 87 76 69 70 68 71 69 60 56 51 48 47 50 50 46
53 46 46 42 39 34 31 29 26 24 20 16 13 12 15 16 18 20 20 22 26 23 31 45 44 50 65 62 43 23 17 17 12 20 28 25 23 26 29 29 28 26 21 19 21 19 18 18 20 25 24 24 28 25 21 18 17 18 15 13 14 32 57 63 61 64 63 67 64 60 80 93 87 78 66 68 71 66 69 64 57 54 50 49 47 49 52 46
50 48 47 42 39 35 32 29 27 22 18 16 12 13 16 17 19 20 20 22 25 24 31 43 47 60 75 61 33 22 24 20 12 13 18 18 20 26 33 34 33 33 25 17 17 16 16 17 18 21 19 21 24 22 22 21 18 18 17 16 15 22 44 57 57 59 66 70 61 56 74 82 76 73 66 67 67 64 67 61 55 55 50 49 48 50 52 48
49 48 46 42 38 34 32 30 27 23 19 15 12 15 17 18 20 20 21 22 26 26 29 44 52 62 77 62 32 22 21 18 12 10 11 11 15 23 29 34 36 35 27 18 16 15 14 15 19 20 20 22 22 23 25 24 21 19 19 23 21 16 28 50 56 55 67 74 60 55 69 73 67 67 63 62 64 62 64 59 55 57 52 50 50 51 53 50
51 47 44 40 36 34 32 30 27 24 19 14 14 17 19 20 20 21 23 24 28 28 32 51 58 60 71 56 29 20 17 15 12 10 12 10 11 15 19 27 32 30 25 18 16 15 14 18 24 24 23 25 25 26 27 28 29 24 21 24 22 18 19 34 50 53 60 72 66 57 67 73 66 61 60 60 60 61 62 58 55 57 56 52 51 53 54 53
53 46 42 38 35 33 32 30 27 25 20 16 17 19 20 23 23 25 28 28 30 30 35 52 60 62 60 40 26 24 18 12 9 8 11 9 8 9 11 20 26 24 21 17 17 17 19 25 28 26 23 25 25 25 30 36 36 31 25 22 19 19 17 19 42 56 57 68 70 62 63 68 63 59 63 62 57 61 62 58 55 56 57 54 53 55 54 55
53 44 40 35 33 31 31 29 27 26 21 17 19 20 22 27 30 31 32 34 41 47 50 55 61 57 43 33 30 25 15 9 8 7 8 8 8 8 8 16 23 24 23 23 23 23 26 30 28 28 26 25 25 25 35 38 33 30 26 23 19 17 18 16 30 52 60 63 67 65 60 60 62 62 65 64 57 60 62 57 55 55 56 55 54 57 55 55
50 43 38 34 32 29 29 28 27 27 22 19 19 20 24 28 32 33 35 45 53 57 56 57 64 50 31 30 26 14 9 7 8 7 8 8 8 9 8 12 22 27 29 32 32 28 30 33 31 34 33 29 27 27 31 29 24 25 22 21 20 15 17 13 17 45 58 57 60 60 56 60 65 65 67 65 57 59 60 56 56 55 56 57 57 57 56 56
47 43 37 33 31 27 27 26 26 27 22 21 21 22 23 25 30 30 30 43 48 43 40 42 51 47 35 28 13 6 8 6 8 8 7 8 8 10 9 12 22 27 30 36 36 30 30 38 40 39 37 29 26 24 24 23 21 23 22 21 20 16 18 11 13 39 52 50 56 51 51 63 65 64 68 64 58 59 60 58 57 57 58 57 58 57 56 56
46 44 38 33 30 26 26 25 26 26 24 23 24 28 28 23 27 27 23 29 29 25 27 25 27 31 28 20 8 6 7 6 8 8 7 8 8 10 11 15 26 31 31 31 32 29 30 41 43 35 32 26 23 22 21 22 21 22 24 23 22 18 18 11 11 34 46 45 52 48 52 65 65 64 66 63 61 61 58 59 57 56 58 56 57 57 55 54
47 46 40 34 30 27 26 24 25 27 25 25 27 32 31 22 20 22 21 26 23 19 21 18 17 18 15 11 8 6 7 8 8 8 8 9 9 12 16 21 31 34 31 28 31 35 38 42 37 29 27 24 22 22 21 22 21 22 23 22 23 18 16 14 9 24 41 44 48 48 54 64 63 63 64 61 61 58 54 55 55 55 58 57 56 56 55 54
49 46 42 38 31 27 26 24 27 29 27 28 32 31 27 21 19 19 20 27 27 20 19 19 17 15 11 8 6 5 8 8 8 9 9 10 11 14 20 25 30 32 30 31 34 40 44 38 29 26 24 24 24 22 22 24 21 22 23 22 23 16 15 16 9 13 31 49 54 50 56 64 62 63 64 59 56 54 52 51 54 56 56 56 54 54 55 54
51 46 45 41 33 29 27 24 28 30 28 28 31 28 22 21 20 18 22 29 29 22 18 18 15 12 9 6 5 6 9 7 7 11 10 11 13 14 20 23 26 31 30 30 32 35 37 29 23 24 23 24 26 23 23 25 23 21 19 19 19 16 14 14 12 9 15 39 52 53 68 74 66 67 67 60 55 52 52 52 55 57 54 55 54 54 54 52
53 48 45 43 39 31 26 27 29 29 30 28 27 27 23 22 21 18 26 35 34 26 18 15 13 10 8 6 6 6 7 7 7 10 10 10 12 14 16 17 21 27 27 26 30 32 30 23 20 23 24 23 24 25 23 22 24 20 15 15 15 13 14 11 13 10 9 29 43 51 79 85 69 69 68 61 60 57 55 55 57 58 57 58 57 57 55 52
54 49 46 48 44 33 29 32 33 32 35 32 27 29 25 23 22 20 34 45 36 25 17 13 11 9 8 8 7 6 9 10 7 8 9 8 9 12 13 15 18 23 23 21 25 27 24 21 19 21 24 23 24 24 20 18 20 19 16 14 12 11 14 12 12 12 15 33 41 42 69 82 69 67 66 61 62 60 58 58 57 59 61 62 59 57 56 54
53 48 47 51 47 44 46 41 37 38 38 32 27 29 25 23 23 22 43 57 38 20 14 11 10 8 8 8 6 9 14 13 8 8 8 7 9 9 13 16 16 17 16 15 22 25 20 20 20 19 21 23 24 22 18 16 17 20 17 11 13 13 12 13 11 12 13 23 31 27 44 73 76 66 59 60 63 61 61 62 59 59 62 64 61 57 56 54
51 47 48 51 46 50 55 49 47 45 37 30 27 27 25 24 24 24 46 58 34 15 12 9 9 8 7 8 6 9 13 11 10 10 8 7 9 10 14 15 14 14 11 12 21 22 15 16 18 18 19 20 22 20 16 15 16 19 15 10 14 12 12 14 10 14 16 12 20 20 25 53 73 67 55 58 66 64 62 63 60 59 61 64 62 58 55 53
48 45 47 50 45 46 52 51 49 42 31 27 28 28 25 24 27 34 50 50 26 12 12 10 10 9 8 8 8 8 9 8 10 11 8 8 9 10 14 14 12 12 10 11 17 15 11 13 14 13 16 17 17 16 14 14 16 15 12 12 13 11 15 16 12 20 23 15 20 20 14 24 46 64 65 63 68 65 59 59 58 58 60 63 62 59 56 54
45 44 47 50 47 47 52 48 37 30 28 29 30 28 26 29 40 53 56 40 19 11 13 11 10 10 9 10 10 9 8 8 8 9 9 9 10 10 11 11 9 10 13 13 12 12 10 10 14 13 14 15 13 13 13 13 14 12 12 13 12 17 20 24 34 36 25 26 32 21 12 12 21 50 67 63 62 59 53 55 57 57 59 62 61 58 56 55
41 40 45 50 48 48 55 47 29 27 30 32 32 28 31 38 49 63 51 23 15 15 12 12 12 11 10 11 12 10 9 9 8 9 9 9 12 13 12 13 13 15 23 19 10 11 9 7 13 12 11 12 11 13 13 12 12 10 15 16 16 28 30 32 44 35 20 36 44 22 10 10 13 37 58 55 50 49 49 52 55 56 58 62 61 57 56 54
39 38 41 43 43 42 46 38 27 29 32 33 33 31 42 51 52 58 43 18 17 19 12 13 12 10 11 11 11 10 10 10 9 9 10 10 13 15 15 18 16 17 27 25 13 15 12 7 9 8 10 11 11 17 15 13 13 10 19 23 23 31 31 31 38 32 28 37 35 19 11 14 20 30 46 50 45 45 45 46 50 53 55 59 61 57 55 54
38 39 36 37 40 37 33 30 28 31 33 35 34 34 51 63 52 42 32 21 20 16 12 14 12 11 13 12 12 11 11 10 9 10 10 10 14 17 18 18 17 18 25 23 19 22 20 16 13 7 9 11 11 18 18 16 16 13 19 25 27 31 28 30 35 32 32 32 25 16 13 21 23 19 32 46 43 40 41 40 43 48 52 56 59 57 54 54
39 42 34 30 35 34 30 31 30 33 36 36 37 43 55 59 44 29 25 24 18 13 13 13 11 12 13 13 13 12 12 12 9 10 14 17 20 24 22 19 17 19 24 26 26 27 26 27 22 11 12 13 11 15 16 16 16 14 18 21 29 35 31 34 37 31 29 31 27 18 17 27 23 14 25 38 39 38 37 38 39 42 48 53 56 57 55 53
40 40 32 29 33 32 32 32 30 37 42 36 41 54 53 44 34 27 27 24 17 15 15 13 12 13 13 14 13 11 13 14 11 13 20 25 25 26 23 20 19 18 24 31 28 24 26 27 20 13 13 12 11 11 9 14 19 18 16 16 22 27 27 30 37 38 32 28 30 27 25 29 22 15 18 22 30 37 36 36 38 39 44 50 56 57 56 53
38 37 33 33 34 31 28 27 29 39 40 37 52 58 41 30 25 23 24 19 15 16 16 16 16 16 18 17 14 13 14 14 13 15 20 24 25 25 22 20 19 17 21 28 26 23 27 26 17 13 13 10 12 12 7 13 22 21 16 16 18 17 17 22 30 34 27 23 32 32 25 24 19 15 14 9 15 26 33 38 37 38 43 50 56 56 54 52
40 45 46 39 32 25 21 21 29 38 36 43 62 51 27 22 20 17 18 15 13 15 16 20 20 18 20 20 18 17 15 15 16 17 21 26 27 25 23 21 19 17 18 23 25 21 23 25 18 12 14 13 11 11 10 12 16 19 18 18 19 16 17 26 30 31 29 29 35 30 24 29 26 21 20 13 7 14 28 37 35 37 45 49 53 53 52 50
50 57 57 40 25 19 18 20 25 31 35 49 62 41 19 19 17 14 16 14 14 15 16 21 21 20 22 24 24 20 19 21 20 18 23 30 31 25 22 23 21 19 18 19 25 23 21 25 20 14 16 16 11 12 17 16 12 15 15 15 21 22 25 32 30 28 32 32 33 31 29 30 27 24 22 14 7 8 21 34 35 39 48 50 50 50 49 48
57 65 60 32 18 20 19 19 22 32 44 52 52 36 21 19 17 17 18 16 15 16 18 21 21 23 24 25 27 24 22 23 22 23 26 30 33 27 23 25 22 20 20 22 29 30 24 25 24 19 17 16 14 18 24 21 14 14 13 12 19 21 23 29 28 28 34 34 35 38 39 36 30 27 23 20 21 18 21 34 37 39 47 49 47 48 47 46
61 68 58 26 15 21 19 19 30 46 52 42 33 28 22 19 19 18 19 18 17 16 19 22 23 27 27 26 28 27 24 24 22 25 28 29 31 29 26 26 25 22 21 24 30 33 32 32 29 25 20 18 20 21 23 22 17 15 15 16 20 22 22 24 24 26 30 36 39 36 39 42 33 27 28 32 37 32 27 33 36 37 45 46 45 47 45 44
71 62 47 21 15 20 20 26 39 47 43 30 23 23 22 21 20 19 18 18 18 17 18 22 25 28 28 29 30 28 27 26 25 27 33 34 35 35 31 27 26 24 26 32 33 35 40 42 39 35 29 25 25 20 17 18 16 14 17 23 25 26 27 26 30 31 25 30 39 35 36 41 32 28 34 37 39 36 29 30 33 35 40 44 45 44 43 43
74 54 32 18 19 21 22 33 42 39 31 25 23 22 22 22 20 19 19 17 18 19 18 22 25 26 27 28 29 30 30 30 29 30 36 39 38 37 32 27 27 26 29 37 35 32 40 45 44 43 37 31 26 21 19 19 19 18 21 25 23 23 29 32 38 39 27 28 39 36 32 35 29 27 34 39 40 37 33 34 35 35 38 43 45 43 43 43
76 64 36 18 17 20 25 36 42 36 27 21 20 19 18 19 19 19 19 21 24 23 22 24 26 25 26 26 27 30 32 33 33 31 34 40 39 35 31 27 28 27 30 38 36 31 37 45 47 46 42 31 20 19 25 24 23 27 27 24 19 19 24 27 32 38 36 39 42 34 26 28 27 23 29 39 41 37 38 38 37 38 39 41 44 44 42 42
83 80 57 28 14 17 27 34 39 39 31 22 19 19 18 17 19 20 20 25 29 27 25 26 27 27 27 26 27 30 32 36 39 37 38 43 41 34 31 29 28 28 32 39 37 31 36 48 57 59 52 36 25 33 44 36 28 30 29 23 19 18 19 23 32 42 46 45 42 39 37 35 30 23 26 38 43 42 44 43 41 44 43 40 41 44 45 44
80 75 61 37 17 19 27 28 32 37 34 30 26 22 21 20 19 20 21 26 29 28 31 31 29 29 31 30 31 33 34 36 41 45 45 46 42 34 32 32 29 28 31 35 35 34 38 47 60 68 64 50 45 55 57 44 32 29 25 21 19 19 18 23 36 48 51 46 42 46 46 39 30 22 25 39 46 47 49 48 47 50 52 49 42 40 44 46
67 55 47 41 29 25 28 25 28 32 33 40 40 27 23 23 21 19 22 28 30 29 32 34 32 34 37 38 40 41 40 38 42 48 50 49 44 36 36 36 31 31 32 31 33 37 40 45 54 65 64 53 50 51 43 33 29 26 23 21 19 19 19 23 37 47 46 43 48 53 46 36 28 22 28 44 51 51 52 52 51 53 58 60 53 47 46 48
63 50 42 48 43 34 35 30 31 35 34 40 42 30 24 25 22 22 26 32 34 34 38 38 37 41 43 44 47 48 47 46 46 47 51 52 46 39 38 37 33 34 33 29 33 40 44 47 47 49 49 42 39 36 28 24 25 23 22 21 19 21 20 22 32 36 32 38 51 55 48 36 27 25 38 52 57 58 59 60 57 53 56 61 63 64 65 64
59 54 47 49 45 39 41 35 32 38 37 38 40 32 28 28 25 25 27 30 33 38 46 48 42 43 45 46 51 54 54 57 56 51 52 54 50 47 49 46 40 37 33 31 35 39 46 51 42 37 40 36 30 29 26 25 25 22 21 21 19 20 21 22 26 24 25 35 42 44 45 38 30 39 55 60 61 66 69 71 67 57 53 58 61 66 72 73
67 68 59 54 47 40 41 36 33 36 39 48 50 38 31 31 29 28 27 33 40 39 44 54 49 43 45 48 53 56 56 59 59 54 51 50 49 54 59 54 46 41 36 34 38 41 52 59 47 39 46 43 34 32 29 27 28 25 21 20 18 19 19 19 20 18 21 30 32 34 41 40 39 53 65 61 59 65 68 73 78 67 57 59 60 61 66 69
78 78 74 73 65 49 41 38 38 37 39 51 54 39 32 34 32 30 28 34 45 40 40 51 49 41 43 49 53 54 51 50 52 51 46 44 50 58 61 53 48 49 43 35 38 44 53 60 51 45 55 52 40 37 34 34 38 35 27 23 19 18 19 17 19 20 22 29 30 30 40 47 51 60 66 60 58 64 68 73 79 73 62 60 62 62 63 67
73 70 72 81 76 58 45 41 44 48 44 48 51 39 36 38 31 30 33 34 37 38 37 43 46 45 45 48 51 53 46 40 42 43 37 34 41 52 57 52 46 48 45 38 42 48 53 62 60 57 66 60 44 42 43 40 40 37 31 28 22 19 19 16 16 18 21 26 25 26 43 60 62 62 64 62 59 64 72 76 79 76 67 61 64 64 62 67
74 71 71 80 74 58 49 46 49 54 46 42 46 40 38 40 32 34 43 38 31 33 33 35 45 51 48 47 51 51 42 34 34 35 32 30 31 35 41 42 37 38 41 41 49 57 61 66 66 65 73 69 51 45 47 46 47 45 37 29 24 24 23 21 25 31 36 40 34 35 55 69 66 62 66 67 64 64 71 76 80 83 77 66 63 64 61 64
Wind_Speed
24 25 26 27 28 27 27 25 24 22 20 19 18 18 19 21 23 24 24 21 19 18 14 12 11 11 11 12 12 11 11 11 10 7 9 10 11 12 12 17 14 16 18 12 13 13 10 9 10 12 8 4 4 4 7 7 3 2 1 2 2 3 3 3 2 2 3 5 4 4 4 4 6 4 1 3 5 6 4 5 6 5 6 12 19 28 32 33
23 24 25 26 27 27 27 27 25 23 21 20 19 19 20 22 24 25 24 20 18 17 14 11 10 9 9 10 10 9 11 11 10 10 14 10 8 16 14 13 15 17 18 14 16 16 9 7 9 9 5 2 3 4 6 6 6 4 2 2 3 3 3 2 4 2 2 6 6 5 5 3 4 5 2 3 5 4 1 1 4 8 9 15 23 29 30 32
23 24 25 26 26 26 27 27 26 24 23 22 20 20 20 22 24 25 23 19 17 17 14 11 9 8 8 8 8 8 9 9 6 7 7 7 14 21 16 11 13 18 20 16 17 18 12 12 13 8 4 3 4 4 5 4 6 4 3 2 5 5 1 3 7 4 4 9 9 6 5 3 3 5 2 4 8 4 4 4 6 13 15 16 20 24 28 30
24 24 26 27 27 27 26 26 26 25 24 23 22 21 21 22 23 24 22 19 17 16 13 11 9 7 6 5 5 6 6 4 2 4 1 5 15 23 20 13 12 15 19 16 13 15 12 10 12 9 5 4 4 5 6 5 5 3 5 6 5 5 3 3 9 7 7 9 9 7 6 5 4 4 3 8 10 6 7 5 7 15 19 19 19 21 26 27
25 25 26 28 28 28 28 27 26 25 25 23 23 22 22 22 23 23 22 19 17 14 12 10 8 6 3 2 2 5 3 2 2 4 1 4 12 20 20 16 13 13 14 14 12 12 9 5 4 6 5 5 5 5 7 9 7 3 8 10 5 4 4 6 9 8 8 8 9 9 6 5 5 3 5 10 9 5 6 5 7 14 18 20 21 20 22 23
25 26 27 28 29 30 29 28 27 26 25 23 23 23 23 23 23 22 21 19 15 11 10 10 9 5 3 2 2 3 1 1 3 5 4 6 11 16 18 17 16 14 12 13 11 8 7 3 1 4 5 5 7 7 7 10 9 6 7 9 8 5 4 8 10 9 9 9 9 9 6 5 6 5 4 6 4 1 2 4 8 13 14 21 22 19 19 19
25 26 27 28 29 30 30 30 29 28 26 24 23 23 23 23 22 21 20 18 13 9 9 9 9 6 3 3 1 1 1 3 6 7 6 8 12 14 16 17 17 17 15 13 11 7 5 5 4 4 5 6 7 9 8 7 9 9 8 7 10 9 7 11 11 9 10 9 9 8 8 6 7 6 4 3 1 0 2 3 8 11 11 19 20 16 16 17
26 27 28 29 29 29 30 30 30 29 28 25 23 23 22 22 22 21 20 18 12 9 8 10 9 5 4 2 0 1 1 6 8 11 8 9 12 14 16 18 20 19 17 17 14 9 5 6 8 5 4 7 6 7 8 6 7 9 10 9 9 9 9 13 10 9 10 8 8 9 8 7 5 5 4 5 4 4 4 5 10 10 7 14 17 15 15 16
27 28 29 30 30 30 30 30 30 30 29 27 25 23 22 21 21 20 19 18 13 9 9 12 10 4 4 2 1 1 2 5 8 12 10 10 11 14 17 19 22 20 17 18 16 11 6 6 9 7 6 8 7 7 6 5 5 7 9 9 7 7 12 14 12 10 8 6 8 10 8 6 5 4 4 4 6 7 7 8 11 11 9 13 16 13 14 16
27 29 30 30 30 30 30 30 30 30 29 28 26 24 22 20 19 18 18 17 13 9 9 12 8 2 3 2 1 1 1 2 9 12 10 10 10 14 18 18 22 23 16 14 15 12 10 9 8 6 5 7 6 7 6 5 5 7 7 7 6 8 12 14 14 10 7 5 8 9 8 6 5 4 3 4 7 7 8 8 12 14 13 15 15 10 14 16
28 29 30 30 30 30 30 30 30 30 29 29 27 24 22 20 18 17 18 17 13 9 8 10 7 0 1 0 2 4 3 6 10 11 9 11 12 12 16 18 21 25 18 11 14 18 18 14 6 1 3 4 4 6 6 6 5 7 8 7 4 9 12 13 15 12 8 5 6 10 8 5 4 3 3 7 8 7 8 9 14 17 14 14 15 10 12 15
28 30 31 31 31 31 31 31 30 30 30 29 28 25 22 20 17 16 18 18 12 8 6 7 5 2 1 1 4 7 5 5 6 9 11 11 9 7 10 16 19 24 21 11 13 23 23 15 6 3 5 4 5 5 5 4 4 7 6 5 2 9 13 12 14 14 11 7 9 12 7 2 6 5 4 8 8 8 10 10 14 17 14 13 13 10 10 14
29 31 31 31 31 31 31 31 30 30 30 30 28 26 22 19 16 15 18 16 10 6 5 4 4 1 2 0 7 7 5 4 2 7 13 10 7 7 9 12 15 19 21 17 16 21 22 17 10 7 7 6 5 5 6 6 4 6 4 3 2 6 10 12 11 12 10 9 15 11 3 4 9 8 7 8 10 11 11 11 13 14 13 13 12 10 10 14
30 31 32 31 31 31 31 31 30 30 30 30 28 25 21 18 16 16 17 14 8 4 4 3 1 3 3 4 10 8 8 7 5 7 11 11 11 11 12 13 13 17 19 20 18 15 17 18 12 7 6 6 5 5 7 5 3 4 5 3 2 3 7 12 12 12 9 7 14 6 1 6 10 9 8 8 11 12 11 13 13 12 13 13 12 11 10 12
31 32 32 31 31 31 31 31 30 30 30 30 28 24 20 18 17 18 16 10 6 4 4 2 3 4 1 7 10 8 5 5 7 10 9 10 11 11 15 18 17 18 18 19 16 12 13 13 8 6 6 6 4 3 5 4 3 1 1 4 2 1 5 11 15 15 12 8 12 4 1 5 8 10 10 10 13 12 11 14 14 12 13 13 11 11 10 11
32 33 32 32 31 32 32 31 31 30 30 29 26 23 20 19 18 15 10 6 5 5 3 1 4 4 0 4 7 6 2 5 8 11 11 10 9 7 12 19 18 19 19 16 15 12 12 9 5 5 6 5 3 1 3 4 4 2 2 3 3 2 4 7 12 16 16 13 12 9 2 2 5 8 10 12 15 14 11 13 16 14 13 13 11 10 10 10
33 33 32 32 32 32 32 32 31 31 30 27 25 23 18 15 12 8 2 1 2 3 3 1 1 2 3 6 6 5 5 8 6 7 11 10 7 6 6 8 11 15 15 13 13 11 7 5 4 4 4 3 2 2 1 3 4 4 1 3 3 3 4 3 8 13 15 16 14 12 6 3 5 8 12 15 16 15 12 12 15 14 12 12 11 11 11 12
33 33 32 32 32 33 33 32 32 31 29 25 24 21 13 10 5 2 7 7 5 2 1 2 1 1 2 5 4 4 4 6 4 3 6 7 8 7 4 4 5 9 8 6 7 6 3 2 2 2 3 3 2 3 3 4 4 3 4 3 3 3 4 4 5 9 13 15 15 14 10 7 7 10 12 15 16 15 14 13 13 13 13 12 12 12 12 13
33 32 32 33 33 33 33 33 31 30 28 24 24 18 9 9 5 6 8 7 4 2 1 2 2 1 2 6 5 5 5 3 3 1 4 5 7 7 4 5 5 7 5 2 3 4 3 1 1 2 3 5 5 4 5 4 5 5 5 3 3 4 5 6 3 11 17 14 14 16 12 8 10 13 13 14 16 15 14 13 11 12 13 12 12 11 12 14
32 32 32 33 33 32 32 32 30 29 26 23 25 17 7 7 4 2 2 3 3 4 5 4 5 4 7 8 6 4 4 3 3 3 6 6 7 5 2 2 4 5 4 4 3 3 4 3 3 5 5 6 6 6 6 6 7 7 6 4 6 6 7 7 3 12 19 13 13 17 12 11 13 15 16 15 14 14 14 14 12 13 12 12 13 13 14 14
33 32 33 33 33 32 31 31 30 26 21 19 21 10 1 3 2 3 5 4 6 7 8 9 8 9 10 13 12 4 1 1 2 3 7 8 7 5 2 2 4 4 4 6 4 2 4 4 6 7 7 7 7 7 7 8 10 8 6 5 7 7 8 10 6 13 22 12 11 15 11 13 15 15 15 15 15 15 15 15 15 15 13 12 14 15 15 13
32 32 34 33 32 32 30 30 27 18 16 19 15 4 3 3 3 2 5 4 8 6 7 10 9 9 13 17 16 5 3 1 4 6 6 7 6 4 2 2 4 4 4 5 3 2 4 5 7 8 8 7 7 7 7 9 10 8 6 5 7 7 6 9 5 10 18 8 8 16 13 11 13 14 15 17 17 15 15 16 16 16 14 14 15 15 14 13
32 32 33 32 33 32 29 29 21 11 16 21 13 6 6 6 8 8 5 2 7 6 5 6 5 6 8 8 7 2 3 1 3 5 6 7 5 4 4 4 5 4 4 5 4 4 4 5 10 11 8 8 8 9 8 7 7 6 6 4 7 8 5 5 3 4 9 3 3 9 5 3 7 9 12 16 15 12 13 14 14 15 15 16 17 15 15 16
32 32 31 32 33 30 29 27 13 11 20 17 9 11 12 11 13 12 4 1 5 6 5 6 5 4 4 2 2 4 3 2 2 4 5 7 3 3 4 4 6 4 4 8 7 6 5 8 10 10 8 9 8 9 8 6 5 6 7 7 8 10 8 7 3 3 4 4 7 7 4 1 6 9 10 10 11 11 12 13 13 13 14 15 15 15 16 17
33 31 30 32 30 29 30 19 8 17 21 9 8 18 18 15 15 12 4 1 3 5 4 4 3 2 1 2 4 3 2 1 4 4 4 5 3 3 2 2 4 4 6 9 8 6 7 10 8 7 8 9 8 8 8 7 5 6 8 10 11 13 12 10 6 2 3 1 8 8 4 3 5 9 10 9 11 11 11 13 14 13 13 13 13 14 15 16
32 30 30 31 29 30 25 8 8 22 15 4 11 20 17 15 17 13 5 2 3 3 1 0 1 1 2 1 3 3 4 2 5 3 3 4 4 4 1 2 0 4 6 6 6 3 6 10 8 8 10 10 9 8 9 8 5 5 7 9 11 11 11 10 6 3 1 2 4 3 3 3 2 7 9 9 12 12 11 13 15 13 13 13 13 13 14 15
31 29 30 30 27 27 17 5 13 18 6 4 14 18 16 16 17 12 4 3 3 1 1 1 1 0 2 1 2 4 2 4 4 1 2 4 3 3 1 2 2 2 1 1 2 3 5 9 10 9 9 9 8 7 9 8 6 6 7 8 8 8 8 7 5 4 4 5 5 4 3 4 3 9 12 11 11 11 12 14 15 15 15 15 15 15 15 16
31 29 29 29 26 20 10 9 14 10 4 10 15 15 17 18 15 6 4 2 2 1 0 1 1 2 2 1 3 3 4 4 0 2 3 4 3 3 1 3 2 3 3 2 2 5 3 3 6 7 6 6 7 9 12 9 6 7 9 8 6 7 7 4 3 3 2 5 3 6 5 3 3 7 10 13 12 13 15 17 19 18 17 17 16 16 16 16
31 29 28 29 25 13 6 10 10 6 7 12 12 15 19 18 9 3 3 2 1 1 1 0 1 2 2 1 1 2 2 1 2 4 2 2 2 3 2 5 3 2 4 3 3 6 3 2 5 3 4 5 6 11 13 9 7 7 9 9 5 4 5 3 2 2 2 3 4 6 5 4 4 3 7 10 11 14 16 16 18 18 17 16 16 17 16 15
31 28 27 28 23 11 7 12 9 4 8 11 14 18 17 10 4 3 2 2 2 1 1 1 2 1 1 2 2 2 2 1 2 1 2 2 3 3 1 2 1 1 3 0 3 6 4 3 5 3 4 4 3 7 10 10 9 6 6 8 5 3 3 3 2 3 3 2 5 7 6 5 2 4 6 10 14 19 17 13 14 15 16 16 15 15 16 15
30 26 25 24 20 11 8 8 4 3 8 13 18 16 9 4 3 3 2 1 1 2 2 1 1 1 2 2 1 2 2 1 0 2 2 2 4 5 3 3 3 3 4 3 4 6 4 1 2 4 3 2 3 5 4 5 7 5 1 2 3 4 4 4 5 3 1 5 5 5 3 5 3 4 7 14 19 22 18 14 16 19 19 17 16 15 16 16
27 24 20 16 14 10 7 4 4 5 9 14 15 8 4 4 2 2 2 3 2 1 3 2 1 1 1 1 0 2 2 1 2 2 2 2 3 4 5 4 2 2 3 3 2 5 5 2 2 5 3 2 3 4 4 4 1 3 3 4 1 2 3 1 3 1 2 5 6 3 4 2 5 5 10 16 18 18 16 15 18 21 20 18 17 16 15 15
25 21 14 9 10 11 9 6 7 7 11 15 10 3 4 4 2 2 3 4 2 1 3 2 2 2 2 4 3 1 2 3 3 3 3 4 5 5 8 9 6 2 1 1 2 5 5 4 5 3 2 6 5 1 2 4 1 3 3 4 4 2 2 1 2 2 3 5 8 2 4 1 5 5 10 16 18 18 16 15 16 19 21 19 18 17 15 15
22 16 9 7 10 11 9 8 8 9 12 13 6 4 5 4 2 3 3 3 2 4 5 4 6 4 3 3 2 2 4 4 3 4 6 7 6 5 7 12 13 5 0 2 3 2 2 3 4 3 3 7 8 4 2 3 2 2 4 6 4 3 4 3 2 2 3 4 7 4 2 2 3 4 10 16 18 17 15 16 16 16 18 17 15 15 14 15
19 12 7 7 10 10 8 5 6 8 8 7 4 4 5 3 3 3 3 4 3 6 8 7 6 5 4 3 2 3 4 2 4 6 9 9 6 6 6 8 12 9 3 3 2 1 1 4 3 3 2 4 8 9 6 3 2 3 1 5 3 4 4 2 3 5 3 1 4 3 1 4 5 5 7 10 13 14 15 16 16 16 16 14 12 13 15 14
19 12 6 8 10 7 3 1 3 5 1 4 5 4 4 2 3 3 3 4 3 5 8 6 7 5 5 4 4 6 4 3 5 5 6 8 8 10 7 5 10 11 6 3 1 2 2 4 5 5 1 4 9 10 6 4 2 3 1 2 5 4 6 2 3 2 2 1 3 2 2 5 4 7 8 7 9 11 14 16 17 18 16 15 14 14 15 15
20 15 7 8 7 3 4 4 1 4 2 4 5 4 2 1 2 3 4 5 4 5 5 5 6 5 4 4 6 10 8 5 7 5 2 4 7 9 8 6 10 12 9 4 1 1 1 4 5 4 2 6 11 9 5 7 5 2 2 5 4 1 3 3 1 2 1 2 3 2 3 4 3 4 8 7 9 10 14 18 17 17 16 17 16 16 17 17
17 13 8 8 5 5 6 5 3 3 3 4 5 5 3 3 5 4 6 6 4 5 6 4 4 5 6 4 5 10 10 6 6 5 3 4 4 7 8 6 9 13 14 9 2 1 2 3 4 4 4 8 11 7 6 11 10 6 4 5 2 1 1 1 1 2 0 1 3 4 3 3 3 5 6 6 10 10 10 16 16 15 15 17 17 17 19 18
10 6 4 7 6 3 3 4 3 3 5 4 4 4 3 5 8 9 9 7 5 5 6 4 4 6 7 5 4 8 9 7 5 4 4 4 2 6 10 6 7 12 13 9 5 3 3 2 4 3 7 7 7 5 5 9 11 10 9 7 3 1 3 1 2 4 2 2 3 3 4 3 4 5 6 7 8 10 6 12 15 16 17 17 16 16 16 16
5 3 3 6 5 1 2 2 4 5 4 3 4 3 4 6 7 11 12 10 6 4 5 5 5 5 6 7 6 5 6 7 7 5 4 5 2 5 11 8 8 11 9 8 8 5 5 4 3 5 7 5 2 4 4 5 8 9 8 7 7 5 1 1 2 2 3 3 2 0 2 4 4 4 8 10 10 11 7 14 15 15 18 18 17 17 16 16
4 3 3 5 2 1 3 3 3 3 2 3 3 4 6 6 6 10 12 11 7 6 6 7 7 6 5 6 6 4 4 5 7 6 5 6 5 4 8 9 9 9 7 6 8 6 3 3 3 6 6 3 2 4 6 5 4 1 2 6 7 7 4 2 3 3 2 3 4 3 2 4 5 5 8 9 11 13 6 13 16 16 19 18 16 17 18 17
3 2 4 11 8 3 3 5 2 1 3 4 4 5 6 6 6 8 9 10 7 6 7 7 7 6 5 5 5 4 3 4 5 5 5 7 8 5 8 10 10 8 5 3 3 5 3 1 4 5 5 4 3 4 4 5 2 4 5 7 6 6 6 3 3 4 2 1 1 3 3 4 5 7 9 10 12 16 12 2 5 10 14 16 17 19 19 18
2 2 8 19 17 4 4 5 4 4 4 5 7 7 6 6 5 6 8 8 6 5 5 6 5 5 6 5 4 5 5 4 5 6 5 5 7 7 10 11 10 7 5 3 3 5 4 2 3 6 6 5 2 3 1 7 7 5 5 8 7 6 7 5 5 3 2 3 3 1 3 3 6 9 10 10 14 16 16 14 10 6 3 3 10 15 17 17
2 3 6 18 25 17 7 4 3 4 4 6 9 7 5 6 6 7 7 7 5 4 4 5 5 5 5 5 5 6 6 4 5 6 5 3 3 6 10 11 9 6 4 4 3 3 3 2 3 4 5 6 4 3 4 8 8 4 4 8 8 9 12 9 4 1 2 2 2 1 2 3 6 10 10 10 15 17 17 18 15 11 9 6 2 8 11 12
3 1 4 11 21 17 6 1 3 4 4 6 7 5 4 4 5 6 7 6 5 5 4 4 5 5 5 5 6 8 7 4 3 3 3 3 2 4 8 9 8 5 4 6 6 2 1 2 3 3 1 5 2 3 4 6 7 5 5 9 10 11 13 9 4 3 2 3 3 1 1 6 8 11 13 11 14 16 18 20 18 15 13 10 2 5 8 7
2 2 2 6 10 8 3 2 4 4 4 4 4 3 4 4 3 5 7 5 4 6 6 5 6 6 6 6 6 7 7 5 3 2 2 3 0 1 5 7 7 6 6 10 10 4 2 2 2 5 5 5 4 1 3 7 8 8 9 10 9 9 11 8 3 2 2 5 5 2 1 7 11 13 13 11 12 13 16 18 18 17 18 16 9 4 4 3
2 2 3 3 4 4 4 5 5 5 4 4 2 4 6 6 4 5 6 3 3 5 5 5 8 7 6 6 5 5 6 6 5 4 3 2 0 1 4 5 5 8 9 9 8 4 2 2 1 3 5 6 6 5 6 7 9 10 11 10 9 9 10 7 5 4 3 4 5 3 3 7 10 11 11 10 10 10 13 16 16 17 17 16 16 15 14 14
2 0 2 1 1 3 4 5 6 7 7 5 3 4 6 8 6 5 4 3 4 5 3 3 6 7 6 5 4 3 5 5 5 5 4 4 3 3 4 4 4 7 7 5 4 3 3 1 2 2 4 6 6 6 6 7 10 10 9 9 9 9 8 7 7 8 6 3 6 6 7 7 7 8 10 10 8 9 11 12 14 16 16 15 18 19 17 16
3 1 3 3 1 2 4 6 7 9 8 6 4 4 5 7 7 6 4 3 3 5 3 3 4 6 7 6 4 2 2 3 3 4 3 4 5 3 3 3 3 5 4 2 2 2 3 1 3 4 5 6 7 8 8 8 10 11 9 8 8 9 9 9 9 10 9 7 8 5 6 5 5 5 7 8 7 7 9 11 13 16 16 16 17 17 16 16
3 1 3 4 3 3 4 5 5 6 6 5 4 3 4 6 6 5 4 4 3 4 4 4 4 4 6 6 5 3 1 2 1 3 1 2 4 2 1 1 2 4 4 1 1 2 3 1 4 4 4 5 6 7 9 10 11 12 9 6 7 9 9 9 8 8 8 7 7 4 5 4 4 4 5 7 8 9 11 13 13 12 15 16 17 16 15 15
3 1 2 2 3 5 4 3 4 5 4 4 2 2 3 5 4 3 3 4 3 3 3 3 4 3 4 5 5 1 2 1 1 5 3 1 2 2 2 2 2 2 4 2 1 1 2 1 2 4 3 4 4 7 11 12 12 11 6 2 4 7 8 8 7 7 7 7 7 5 2 1 5 5 5 7 10 11 12 11 10 9 12 15 16 16 15 14
8 4 4 3 2 5 3 2 4 4 3 3 3 3 4 5 5 4 3 4 4 3 3 4 4 3 3 2 1 5 5 3 3 5 4 3 4 3 3 3 3 2 3 2 1 0 2 2 1 1 1 3 3 6 9 9 9 8 4 1 4 6 8 7 4 5 6 4 3 2 2 2 4 6 6 8 9 10 10 9 8 8 10 13 14 14 14 14
Wind_Direction
1 360 360 2 5 6 5 3 360 356 356 355 352 351 349 349 347 346 343 340 337 333 330 317 310 312 311 316 316 316 312 307 310 264 233 260 234 196 172 174 173 157 159 170 174 168 174 194 204 205 205 211 219 231 220 204 163 133 142 180 226 224 216 224 150 130 153 138 141 122 114 137 144 155 79 76 49 37 11 13 60 69 120 136 140 147 148 149
359 358 358 360 2 4 4 3 359 355 354 352 352 350 348 349 347 346 344 341 340 337 334 323 311 313 312 315 316 311 313 311 300 263 246 259 209 184 169 165 185 177 168 174 181 173 166 187 197 200 194 207 218 219 222 186 160 172 166 183 231 220 202 175 121 124 172 133 144 143 135 165 145 132 127 124 94 70 72 35 110 136 139 134 143 148 148 149
357 357 356 357 359 1 2 2 359 355 352 350 350 349 348 348 348 347 346 343 341 340 339 334 321 318 319 314 317 312 315 322 289 270 263 229 188 181 171 158 178 185 183 182 185 184 177 179 186 188 186 230 235 221 226 178 173 196 168 209 245 214 190 114 129 160 175 136 143 145 140 161 125 120 130 122 126 159 188 187 178 157 147 145 150 152 150 149
356 356 356 354 354 357 359 360 359 355 351 348 348 347 346 347 349 348 347 344 341 343 343 344 336 327 331 317 322 320 316 347 280 274 355 186 180 178 178 171 170 184 193 191 188 192 196 190 186 188 193 224 237 229 229 195 178 188 184 217 237 192 194 150 143 161 162 138 136 133 148 154 119 124 154 143 146 182 194 195 192 161 153 152 153 155 152 151
355 356 355 354 352 353 355 356 357 356 351 347 346 344 343 346 349 349 348 345 342 347 353 358 357 345 352 341 326 330 334 46 277 251 137 167 178 178 179 175 175 183 193 201 198 197 216 230 196 200 204 220 231 226 228 212 193 202 213 221 227 172 173 157 146 157 155 133 126 133 153 140 119 147 171 166 166 189 180 165 178 169 158 153 155 157 153 153
354 354 355 354 351 351 351 352 353 354 352 346 344 342 341 344 347 349 348 345 343 349 6 14 17 19 26 25 324 326 47 109 259 228 178 163 176 182 179 173 178 188 195 202 200 196 212 212 178 208 211 224 224 222 229 214 203 225 235 225 222 199 153 149 147 151 151 142 140 141 138 122 132 148 169 182 173 166 114 104 161 171 161 153 156 157 155 155
352 353 354 353 351 349 348 349 349 350 350 346 342 339 338 341 345 349 349 347 343 343 359 7 12 18 7 20 355 356 93 265 241 204 184 161 170 182 183 179 180 193 201 197 190 188 190 179 194 213 218 229 228 233 240 226 217 233 250 238 219 206 163 150 152 158 162 155 145 133 125 138 152 150 168 167 89 133 93 94 156 159 164 160 159 163 159 155
351 352 353 351 349 348 347 346 346 347 347 345 341 337 335 338 343 346 349 348 341 330 336 342 346 342 333 355 338 343 252 246 205 178 176 160 167 177 182 186 189 196 200 197 192 185 177 188 210 214 226 232 223 230 239 246 242 237 246 250 225 200 163 151 152 165 164 147 133 124 128 152 152 145 172 141 141 195 143 137 151 143 180 176 166 166 158 152
350 351 351 350 348 347 345 343 344 343 343 342 339 336 332 334 339 343 347 347 340 324 321 331 330 304 299 306 276 313 249 231 181 165 167 164 169 178 183 188 193 195 196 201 197 186 182 196 210 208 232 246 239 238 238 238 246 242 242 249 233 182 156 148 151 167 161 142 143 129 125 145 136 138 176 150 165 180 136 143 154 155 195 184 171 167 156 155
348 350 349 348 346 345 343 342 341 341 340 338 336 335 331 331 336 338 341 343 339 323 319 333 332 284 278 289 129 172 209 174 170 167 163 166 167 176 187 191 191 190 190 199 194 191 201 202 204 210 246 262 247 243 243 231 246 267 262 269 248 175 149 139 145 161 147 150 163 133 129 151 153 173 198 173 180 175 146 156 165 174 192 178 172 166 156 160
347 348 347 346 345 343 342 341 339 339 337 335 334 333 329 329 332 334 335 335 330 321 324 334 339 298 223 88 141 207 188 148 171 180 170 172 172 176 190 192 188 187 186 190 197 205 212 216 218 278 274 268 260 251 249 244 265 285 277 287 269 147 132 130 143 157 141 161 177 126 116 140 163 225 214 170 180 181 165 170 173 180 189 174 171 166 158 164
345 346 346 345 344 342 341 340 339 338 334 332 332 330 327 326 328 330 330 329 324 315 320 338 1 97 105 47 217 219 199 161 177 188 178 181 192 190 191 192 191 191 189 186 205 213 217 227 240 264 264 291 304 275 272 280 300 302 286 276 258 124 137 148 149 159 151 159 163 124 97 156 200 216 178 161 174 177 172 179 178 178 181 174 173 166 160 166
345 345 345 344 343 341 340 340 339 336 333 332 330 328 326 322 325 326 324 324 321 307 306 344 24 99 82 259 234 241 262 249 216 194 186 194 223 211 192 193 195 199 198 198 210 217 221 228 231 238 255 278 287 284 298 309 318 311 311 266 220 116 153 166 150 160 153 153 164 144 96 221 227 215 165 158 172 174 176 182 179 174 173 175 177 168 164 169
345 345 344 344 343 342 341 340 339 335 333 332 329 328 325 320 321 319 314 313 310 294 282 324 73 136 98 260 263 295 301 266 246 228 202 200 213 206 198 196 198 205 205 207 215 221 224 229 236 253 264 250 256 296 304 314 341 311 325 315 209 130 174 169 156 160 144 163 181 163 94 207 229 214 176 169 177 179 177 178 179 174 171 173 176 169 168 172
345 345 344 344 343 342 342 341 339 336 334 331 329 328 324 320 316 309 303 296 287 258 257 299 195 162 48 280 281 315 304 248 233 221 204 201 200 196 199 195 199 208 207 208 218 229 238 241 243 254 261 251 263 323 315 317 342 324 345 321 283 175 196 170 168 169 147 174 207 208 115 207 230 208 184 177 181 186 180 175 178 178 174 172 172 169 171 174
345 345 344 344 343 343 342 342 341 339 336 331 330 329 326 322 311 299 294 278 254 226 232 313 194 181 55 283 295 320 260 216 224 207 201 209 194 190 202 193 194 204 205 207 218 237 251 256 247 239 243 250 258 289 337 333 325 346 141 256 269 191 207 172 178 183 155 155 209 228 185 180 227 202 184 180 184 188 180 173 176 178 178 173 170 171 171 174
344 344 345 345 344 343 343 343 343 341 337 332 332 333 334 331 309 290 285 188 182 199 221 303 175 183 259 284 299 298 237 206 211 192 196 211 203 211 216 188 181 190 201 207 213 229 242 245 248 246 228 213 219 174 341 297 281 319 255 230 254 203 214 179 177 190 161 151 189 217 211 205 208 182 173 181 184 184 181 175 174 175 178 175 171 173 173 177
343 344 345 345 344 344 344 344 345 344 338 332 335 339 349 1 346 85 106 114 105 105 248 289 34 94 256 285 283 268 256 198 178 133 178 201 204 210 214 199 171 167 187 208 207 212 203 223 244 254 226 203 228 176 172 231 214 238 251 242 283 265 241 223 174 176 169 163 178 198 215 221 192 170 171 180 182 183 184 178 174 175 175 173 172 173 175 180
342 344 345 345 345 344 344 344 346 346 338 335 344 351 12 27 41 101 106 119 109 73 294 233 177 102 296 281 269 283 299 210 188 186 188 203 200 199 207 208 177 152 154 184 215 209 178 219 241 214 234 210 226 200 174 227 229 230 253 251 270 283 262 248 200 169 173 173 180 189 201 198 178 177 178 180 182 183 185 179 174 176 175 174 174 176 177 183
343 345 346 345 345 344 343 344 346 346 341 341 349 356 22 23 26 53 46 155 197 233 254 240 206 259 294 287 289 312 304 243 215 207 208 220 192 179 221 164 143 153 148 158 203 209 170 186 219 213 223 211 225 219 192 235 264 269 284 294 277 277 272 267 243 176 178 178 191 193 188 183 182 183 181 179 180 184 185 183 180 176 176 177 175 178 180 185
343 346 346 345 344 343 342 343 345 347 348 347 351 1 16 353 15 321 325 283 252 233 242 258 241 255 268 267 275 297 19 288 295 255 224 213 162 146 277 72 124 175 178 174 182 171 166 192 225 223 220 215 224 224 213 232 253 265 270 283 280 272 269 272 261 185 183 182 191 190 183 188 187 182 181 177 179 188 189 185 185 180 177 179 179 180 181 182
344 346 345 344 343 341 341 341 344 351 356 349 351 5 270 323 62 354 334 307 283 247 238 261 254 259 260 258 262 248 102 10 317 301 237 195 144 149 229 101 142 195 194 186 173 159 187 216 231 227 219 220 231 229 225 230 239 250 250 262 269 266 275 277 281 183 185 188 189 186 184 192 187 178 181 183 184 191 190 187 187 182 177 179 180 180 180 178
345 344 344 344 340 338 338 339 342 356 355 344 335 325 319 351 21 357 346 295 289 277 241 249 245 255 259 258 254 166 109 171 277 285 212 166 147 169 165 143 179 194 183 191 176 157 189 235 227 222 215 215 229 233 228 231 238 240 236 247 255 260 267 258 330 103 155 143 181 184 167 163 177 181 190 191 190 189 191 192 188 184 182 183 182 178 178 178
343 343 344 342 338 336 336 337 345 358 349 343 335 346 357 7 8 3 8 204 288 286 241 228 230 243 245 224 164 127 117 180 222 263 194 151 148 170 155 168 183 186 192 199 194 178 204 236 224 217 220 216 222 235 231 228 244 242 231 231 245 257 251 233 273 45 113 146 169 146 75 95 184 190 197 194 194 194 192 190 188 191 189 185 183 179 180 180
341 341 341 341 339 334 331 334 356 353 345 351 7 359 0 2 2 11 33 66 300 283 246 230 224 235 278 136 162 152 98 240 244 240 182 139 136 138 155 199 172 201 215 200 197 198 223 237 221 202 219 227 226 234 228 213 231 254 237 225 233 249 253 252 265 307 35 124 175 145 119 224 214 200 198 187 193 197 193 191 191 193 192 188 186 183 183 183
341 340 340 340 338 335 335 340 347 343 338 346 5 355 352 352 352 359 31 58 324 270 219 16 149 213 301 167 167 96 63 306 268 224 143 123 120 109 148 294 86 208 213 198 201 196 220 232 221 197 206 217 225 238 232 206 208 250 241 222 228 245 256 262 263 238 109 126 182 178 151 163 202 222 216 195 194 196 194 198 197 193 193 191 190 187 184 183
340 339 339 338 339 341 337 306 328 338 327 332 351 350 348 343 340 349 42 65 342 291 176 311 353 359 289 222 106 79 101 262 299 5 140 141 118 76 112 272 315 257 284 58 211 217 213 225 227 214 203 206 215 237 232 200 184 239 249 235 238 260 267 266 263 240 199 151 165 217 177 116 176 218 211 196 194 201 202 203 202 200 198 194 193 191 186 184
338 338 338 334 338 340 314 295 324 330 318 335 343 345 341 333 332 352 87 79 322 293 146 278 318 304 290 59 96 122 197 221 62 291 237 141 115 67 80 242 225 253 292 90 205 263 252 226 234 224 210 207 205 222 228 205 186 235 251 246 239 253 271 293 299 271 195 142 179 222 177 129 246 224 190 183 190 206 211 206 203 202 199 196 194 193 191 188
336 336 337 331 334 338 301 302 307 298 330 344 344 339 330 328 342 53 93 77 116 281 302 322 339 286 277 65 100 203 220 165 159 245 265 93 75 82 159 228 206 265 276 162 206 264 273 286 277 252 213 216 208 217 221 208 205 231 245 249 247 253 281 349 41 354 37 133 206 228 181 145 272 254 158 171 195 211 216 209 204 203 199 197 197 195 193 190
333 335 336 330 329 333 308 298 285 286 345 344 334 329 324 331 36 79 41 90 142 288 284 304 338 309 100 55 315 253 207 187 190 209 45 41 2 38 138 249 52 357 304 341 260 261 251 263 268 254 216 222 245 234 212 199 211 226 245 256 270 321 350 22 60 61 27 287 232 226 201 153 239 260 168 176 201 208 212 206 200 204 200 197 198 196 194 191
333 335 335 328 322 316 298 293 293 313 326 328 329 329 336 15 72 93 62 96 197 319 303 271 297 282 138 135 255 233 194 226 123 79 57 47 14 7 1 353 15 18 355 350 305 287 295 303 251 257 254 246 286 283 242 198 202 196 177 259 274 316 2 8 357 34 62 272 246 215 180 144 187 253 200 198 208 208 206 198 194 200 201 198 197 196 195 192
335 336 332 325 314 296 272 282 342 325 320 334 338 344 51 58 37 90 12 338 360 321 290 268 246 239 141 94 99 165 152 29 54 77 85 87 42 16 31 20 347 31 351 313 329 325 309 297 267 257 271 338 306 287 316 333 27 129 104 83 103 306 356 345 316 320 214 259 249 188 88 134 219 235 206 206 215 213 207 200 195 198 199 197 197 196 195 192
341 340 331 319 303 288 274 288 321 321 328 341 350 27 83 78 41 19 349 345 19 297 293 315 332 355 68 35 24 73 72 48 46 49 50 67 63 44 39 24 18 72 200 271 32 353 325 326 332 306 314 349 353 5 301 301 20 125 146 123 142 146 81 245 264 279 250 272 274 250 90 216 265 261 210 203 213 213 207 205 199 199 200 198 196 193 192 192
349 346 331 295 283 288 283 289 305 306 321 340 11 62 57 71 32 4 19 351 326 332 340 341 330 340 57 46 37 47 45 41 27 45 47 43 45 32 27 20 15 20 164 56 47 8 6 319 336 21 324 330 358 19 301 252 217 212 182 135 139 154 143 190 196 195 238 273 297 328 68 190 226 248 212 201 211 210 202 205 201 200 202 198 193 189 189 193
354 349 322 279 276 292 292 285 295 292 310 351 49 66 56 59 341 353 8 319 321 344 340 350 4 11 15 8 48 54 59 43 5 53 67 58 48 21 16 16 9 4 14 49 4 336 64 244 280 12 297 329 4 352 339 341 292 264 169 113 147 189 156 177 192 182 187 287 315 324 257 218 211 256 244 205 210 209 202 204 200 202 201 188 186 188 190 195
357 352 321 284 289 299 302 320 277 261 286 49 59 65 84 85 328 349 346 314 325 336 331 1 27 26 12 5 12 11 26 47 19 50 84 72 53 22 9 9 8 7 16 45 10 6 24 264 300 340 322 54 13 336 344 13 295 273 6 168 217 187 137 152 258 237 135 164 281 267 250 289 302 294 283 236 218 213 206 208 202 200 195 179 185 192 190 193
355 352 327 303 322 27 65 47 211 202 108 71 71 69 83 68 347 346 343 328 326 343 7 40 21 14 26 29 20 8 10 22 11 17 63 63 41 11 359 358 4 5 2 12 80 29 347 269 313 359 5 14 354 328 351 17 17 43 301 260 264 18 110 122 271 325 56 164 271 265 217 290 316 289 292 272 245 223 203 208 209 199 189 183 189 191 190 193
347 345 321 320 4 68 54 52 149 150 74 49 66 70 54 34 27 14 2 352 347 10 44 63 22 31 44 37 24 13 18 20 355 5 49 55 32 2 4 356 352 358 359 7 32 344 342 292 315 29 35 346 344 358 6 356 11 44 335 303 340 50 218 28 138 206 134 162 267 291 264 261 232 242 294 286 262 255 209 203 207 195 185 189 193 191 191 190
349 352 328 345 23 60 52 89 110 67 64 53 57 56 35 43 34 22 15 12 16 26 42 50 34 49 51 44 34 15 25 37 12 15 47 43 24 360 10 1 340 354 5 26 37 331 360 12 294 350 32 356 344 28 24 341 350 9 2 352 356 216 196 199 193 181 160 175 224 306 317 285 238 253 312 323 294 291 244 201 204 194 188 193 192 190 189 187
6 26 300 338 15 354 328 71 55 47 70 71 79 60 33 47 31 20 21 19 25 34 42 46 36 46 49 44 45 19 22 39 33 45 44 28 53 20 12 5 348 352 360 32 40 4 10 33 292 312 6 20 35 35 30 357 347 350 354 0 350 325 280 156 245 186 143 158 180 221 279 280 295 323 332 332 324 314 250 201 201 196 191 195 192 186 184 185
13 46 287 325 5 245 359 32 42 73 85 35 71 71 50 56 33 21 20 17 29 46 52 59 52 52 49 39 41 20 20 40 34 56 63 31 44 28 359 360 1 357 355 20 31 17 10 11 317 319 342 21 81 6 338 322 311 311 4 10 359 339 351 12 299 273 143 158 180 177 212 276 312 347 339 329 340 342 297 205 198 195 192 194 191 184 184 186
33 55 316 341 336 282 42 44 337 83 91 58 52 51 51 58 38 25 18 16 29 36 43 57 52 51 52 40 38 25 39 55 26 48 84 55 47 26 348 360 9 8 18 35 359 347 4 18 336 317 287 276 255 254 298 324 341 96 60 17 1 353 6 12 284 289 313 295 227 175 191 256 304 350 352 347 3 7 360 335 198 201 197 194 191 185 184 187
42 312 325 358 9 36 75 41 360 13 66 83 69 49 43 50 45 35 27 26 27 17 36 53 40 43 48 38 38 31 36 57 39 48 78 66 48 24 1 4 8 12 24 28 335 337 357 31 350 321 292 296 272 194 76 38 46 61 30 2 357 352 343 311 260 266 323 348 348 222 201 270 326 343 348 356 14 19 17 21 26 14 341 222 198 191 188 188
351 269 302 8 32 58 71 36 33 30 39 75 78 66 50 49 51 50 41 38 34 18 39 50 34 35 40 36 49 42 35 55 53 48 57 61 43 21 10 3 1 13 19 4 354 338 345 48 48 5 327 329 10 34 7 18 28 27 344 340 342 342 339 326 296 326 53 35 354 185 204 279 314 330 336 360 21 25 23 22 23 18 6 357 216 195 196 192
342 264 262 355 27 50 67 41 80 62 38 64 80 80 78 59 48 57 56 47 42 41 47 45 32 33 32 37 51 44 39 62 66 47 49 52 36 16 12 360 352 358 1 10 19 33 105 92 97 95 328 286 321 37 351 333 341 336 322 329 338 348 346 335 330 8 22 335 330 111 212 295 311 332 339 359 22 28 27 21 17 18 14 10 18 189 196 200
25 23 316 333 10 36 47 18 62 70 44 60 70 44 64 80 51 51 58 46 30 49 62 44 28 35 35 37 49 39 26 43 67 65 62 56 38 337 357 353 347 352 12 21 17 18 122 97 124 149 179 242 250 234 281 293 300 303 313 321 331 343 336 328 343 7 339 324 316 173 137 328 329 333 339 360 18 27 32 23 17 22 21 20 33 84 105 70
76 39 10 336 342 13 20 15 39 54 35 56 65 3 36 64 47 34 49 42 18 44 64 46 33 41 38 33 48 30 8 24 43 33 31 38 318 304 349 350 354 9 24 24 11 17 70 17 319 184 207 242 255 264 282 294 294 296 305 310 314 324 323 324 322 302 319 337 299 268 2 343 326 327 344 5 11 25 36 24 16 22 24 27 41 54 56 50
46 55 352 357 359 22 29 34 52 51 37 45 53 16 37 50 41 35 45 49 37 37 53 50 38 49 53 50 63 30 360 18 17 359 1 360 348 357 353 342 349 10 24 22 9 55 95 275 293 325 308 289 293 307 309 299 289 287 289 291 299 310 308 307 305 300 310 299 263 295 342 336 322 343 1 10 15 33 45 35 18 15 18 27 39 48 51 49
31 8 329 357 33 17 34 49 62 58 42 39 39 23 36 46 38 33 32 38 29 20 49 84 51 46 54 58 70 48 19 47 8 338 347 343 338 1 1 329 327 352 17 33 7 56 107 289 329 355 337 318 322 322 315 313 307 298 288 279 282 287 285 288 292 292 291 270 257 301 352 338 335 10 10 3 14 36 51 54 32 9 7 22 33 39 44 44
47 11 327 359 359 1 34 41 58 67 43 35 42 9 28 53 44 29 34 48 31 353 23 86 91 68 60 59 64 44 21 88 19 297 285 346 337 356 8 271 274 328 348 354 328 52 101 322 336 12 351 318 323 325 325 331 323 309 305 300 283 274 274 277 277 280 287 280 280 333 18 339 325 16 26 11 19 31 39 49 47 19 5 16 27 28 31 35
42 289 343 49 3 6 32 24 39 76 50 25 31 353 24 56 49 33 29 29 44 36 42 98 123 105 70 55 54 342 285 109 268 275 263 240 262 213 192 216 212 311 332 307 277 75 116 237 346 39 356 301 322 341 333 331 323 310 302 298 288 278 271 267 259 265 277 280 294 327 24 273 304 345 31 34 30 34 37 37 45 39 21 20 25 22 20 24
21 357 11 87 78 6 27 37 29 56 51 12 11 13 40 67 57 54 37 348 357 38 72 104 114 88 69 49 268 237 235 222 247 271 269 250 249 224 212 245 263 283 296 295 294 173 140 127 35 50 310 296 335 347 336 336 329 302 257 208 345 319 299 290 286 302 311 311 308 287 216 244 317 342 22 45 38 35 40 34 32 42 36 28 26 23 18 15